Weather History for Broomfield, CO

Change the Weather History Date:

Tuesday, February 5, 2013

  Actual Average Record
Temperature  
Mean Temperature 48 °F -  
Max Temperature 59 °F 42 °F 68 °F (2009)
Min Temperature 37 °F 23 °F -13 °F (1985)
Degree Days  
Heating Degree Days 17    
Moisture  
Dew Point 11 °F    
Average Humidity 25    
Maximum Humidity 42    
Minimum Humidity 13    
Precipitation  
Precipitation 0.00 in - - ()
Sea Level Pressure  
Sea Level Pressure 29.92 in    
Wind  
Wind Speed 10 mph (West)    
Max Wind Speed 21 mph    
Max Gust Speed 28 mph    
Visibility 11 miles    
Events      
Averages and records for this station are not official NWS values.
T = Trace of Precipitation, MM = Missing Value Source: NWS Daily Summary

Daily Weather History Graph

Daily Weather History Graph

Search for Another Location

Airport:

Trip Planner

Search our weather history database for the weather conditions in past years. The results will help you decide how hot, cold, wet, or windy it might be!

Date:

Astronomy

Feb. 05, 2013 Rise Set
Actual Time 7:04 AM MST 5:25 PM MST
Civil Twilight 6:36 AM MST 5:53 PM MST
Nautical Twilight 6:04 AM MST 6:25 PM MST
Astronomical Twilight 5:32 AM MST 6:57 PM MST
Moon 2:48 AM MST (2/5) 12:45 PM MST (2/5)
Length of Visible Light 11h 17m
Length of Day
10h 20m
Waning Crescent, 26% of the Moon is Illuminated
Feb 5
Waning Crescent
Feb 10
New
Feb 17
First Quarter
Feb 25
Full
Mar 4
Last Quarter

Hourly Weather History & Observations

Time (MST) Temp. Windchill Dew Point Humidity Pressure Visibility Wind Dir Wind Speed Gust Speed Precip Events Conditions
12:16 AM 42.8 °F 36.6 °F 8.6 °F 25% 29.91 in 10.0 mi WNW 11.5 mph - N/A   Clear
12:36 AM 44.6 °F 37.8 °F 10.4 °F 25% 29.91 in 10.0 mi WNW 15.0 mph - N/A   Clear
12:56 AM 42.8 °F 34.8 °F 10.4 °F 27% 29.91 in 10.0 mi West 17.3 mph - N/A   Clear
1:16 AM 44.6 °F 37.4 °F 10.4 °F 25% 29.91 in 10.0 mi West 16.1 mph 23.0 mph N/A   Clear
1:35 AM 44.6 °F 37.8 °F 10.4 °F 25% 29.92 in 10.0 mi West 15.0 mph 25.3 mph N/A   Clear
1:55 AM 42.8 °F 35.4 °F 10.4 °F 27% 29.91 in 10.0 mi West 15.0 mph - N/A   Clear
2:16 AM 44.6 °F 36.4 °F 10.4 °F 25% 29.92 in 10.0 mi WNW 20.7 mph 24.2 mph N/A   Clear
2:36 AM 44.6 °F 36.9 °F 12.2 °F 27% 29.93 in 10.0 mi West 18.4 mph 27.6 mph N/A   Clear
2:56 AM 44.6 °F 38.4 °F 12.2 °F 27% 29.93 in 10.0 mi WNW 12.7 mph 21.9 mph N/A   Clear
3:16 AM 42.8 °F 35.8 °F 12.2 °F 29% 29.93 in 10.0 mi WNW 13.8 mph 25.3 mph N/A   Clear
3:36 AM 42.8 °F 35.1 °F 10.4 °F 27% 29.94 in 10.0 mi WNW 16.1 mph 20.7 mph N/A   Clear
3:56 AM 44.6 °F 38.4 °F 10.4 °F 25% 29.94 in 10.0 mi WNW 12.7 mph - N/A   Clear
4:16 AM 44.6 °F 37.4 °F 10.4 °F 25% 29.94 in 10.0 mi WNW 16.1 mph 21.9 mph N/A   Clear
4:36 AM 44.6 °F 37.8 °F 10.4 °F 25% 29.94 in 10.0 mi WNW 15.0 mph 21.9 mph N/A   Clear
4:56 AM 42.8 °F 41.1 °F 10.4 °F 27% 29.96 in 10.0 mi North 3.5 mph - N/A   Clear
5:50 AM 41.0 °F - 10.4 °F 29% 29.98 in 30.0 mi Calm Calm - N/A   Clear
7:47 AM 37.4 °F 32.1 °F 8.6 °F 30% 30.01 in 60.0 mi NW 6.9 mph - N/A   Partly Cloudy
8:46 AM 39.2 °F - 10.4 °F 31% 30.04 in 60.0 mi Calm Calm - N/A   Scattered Clouds
9:48 AM 46.4 °F 45.2 °F 10.4 °F 23% 30.03 in 70.0 mi Variable 3.5 mph - N/A   Scattered Clouds
10:49 AM 48.2 °F - 10.4 °F 22% 30.03 in 70.0 mi SSE 4.6 mph - N/A   Mostly Cloudy
11:49 AM 51.8 °F - 6.8 °F 16% 30.03 in 70.0 mi East 5.8 mph - N/A   Mostly Cloudy
12:45 PM 53.6 °F - 6.8 °F 15% 29.97 in 70.0 mi South 3.5 mph - N/A   Mostly Cloudy
1:48 PM 55.4 °F - 6.8 °F 14% 29.93 in 70.0 mi ESE 5.8 mph - N/A   Mostly Cloudy
2:46 PM 57.2 °F - 6.8 °F 13% 29.91 in 70.0 mi South 6.9 mph - N/A   Mostly Cloudy
3:53 PM 59.0 °F - 6.8 °F 13% 29.90 in 70.0 mi South 10.4 mph - N/A   Mostly Cloudy
4:50 PM 57.2 °F - 6.8 °F 13% 29.88 in 70.0 mi SE 5.8 mph - N/A   Mostly Cloudy
6:47 PM 50.0 °F - 12.2 °F 22% 29.88 in 30.0 mi South 5.8 mph - N/A   Mostly Cloudy
7:53 PM 46.4 °F - 12.2 °F 25% 29.88 in 20.0 mi Calm Calm - N/A   Mostly Cloudy
8:50 PM 44.6 °F - 12.2 °F 27% 29.86 in 20.0 mi Calm Calm - N/A   Mostly Cloudy
9:45 PM 44.6 °F - 12.2 °F 27% 29.87 in 20.0 mi Calm Calm - N/A   Mostly Cloudy
10:16 PM 41.0 °F 38.0 °F 15.8 °F 36% 29.86 in 10.0 mi West 4.6 mph - N/A   Clear
10:36 PM 42.8 °F 41.1 °F 14.0 °F 31% 29.85 in 10.0 mi WSW 3.5 mph - N/A   Clear
10:55 PM 42.8 °F 40.1 °F 14.0 °F 31% 29.84 in 10.0 mi West 4.6 mph - N/A   Clear
11:16 PM 42.8 °F - 14.0 °F 31% 29.84 in 10.0 mi Calm Calm - N/A   Clear
11:35 PM 39.2 °F - 17.6 °F 42% 29.84 in 10.0 mi Calm Calm - N/A   Clear
11:56 PM 44.6 °F - 15.8 °F 31% 29.83 in 10.0 mi Calm Calm - N/A   Clear